Wind_Speed
16 13 7 4 2 4 4 7 3 3 2 4 1 4 6 4 7 4 5 37 39 40 36 33 30 27 23 20 20 23 25 25 24 24 23 21 19 17 16 15 13 12 11 11 10 10 9 8 6
13 11 5 2 3 3 5 5 8 6 10 3 1 3 1 2 2 6 28 37 35 39 38 34 31 28 25 22 21 24 25 25 24 22 21 20 18 17 16 14 13 11 9 9 8 7 6 6 5
9 9 5 4 5 8 6 5 11 11 17 6 0 2 3 2 3 20 35 38 39 39 38 36 32 29 26 23 22 24 25 25 24 23 21 19 17 16 14 12 11 10 8 8 7 6 5 4 4
7 7 2 3 9 7 7 6 5 3 2 3 3 2 4 6 10 17 33 37 39 37 37 36 34 32 28 25 22 23 26 25 23 22 21 19 17 15 13 11 9 8 7 6 6 5 4 4 3
11 5 3 4 9 4 7 12 13 7 9 5 6 1 3 7 5 16 29 38 37 37 36 35 33 31 28 25 24 23 24 24 23 21 19 18 16 14 12 10 8 6 5 4 4 4 3 3 3
7 4 2 13 8 13 6 15 13 3 13 18 3 8 3 8 17 22 27 36 35 35 35 35 33 31 29 26 24 22 22 23 22 19 17 16 14 13 11 8 7 5 4 3 3 2 3 3 4
6 4 6 3 18 10 9 14 6 4 7 10 7 4 7 11 19 28 33 33 32 32 33 34 33 31 29 27 24 22 22 23 22 20 17 15 13 11 9 7 5 4 2 2 2 2 4 5 6
7 4 6 7 8 16 6 2 0 7 10 19 20 8 8 25 26 27 33 33 32 32 33 34 34 33 32 29 26 24 23 23 23 21 18 15 12 10 8 5 3 1 1 2 2 4 5 7 8
10 3 7 10 9 5 7 2 6 4 7 4 18 11 19 32 33 32 35 34 33 32 32 33 33 33 32 30 28 25 23 23 24 22 18 15 12 10 7 6 3 2 2 2 3 5 4 5 6
6 5 8 6 8 5 4 2 8 1 1 1 6 13 26 34 34 37 42 41 37 35 34 34 34 33 33 32 30 27 26 25 24 22 19 16 14 11 9 9 7 5 4 4 3 4 5 5 7
6 8 5 7 7 2 3 3 7 3 4 7 15 16 29 34 33 38 43 44 42 36 35 36 34 34 33 32 30 28 27 25 24 22 19 16 13 11 11 10 8 5 3 0 2 3 5 7 10
5 11 8 10 3 6 2 1 9 9 10 7 12 25 31 35 42 40 40 43 41 38 35 33 33 32 31 30 28 27 25 24 22 20 18 17 15 13 11 10 6 3 0 2 4 6 8 10 11
8 4 6 24 20 16 12 7 10 19 23 16 14 29 34 36 37 36 37 39 38 39 37 35 33 32 30 28 27 25 24 23 20 20 18 16 14 11 10 8 5 2 4 5 5 7 9 12 15
2 13 18 19 14 8 5 6 10 11 16 10 11 35 38 29 34 35 33 34 40 39 37 33 33 31 29 27 25 24 22 20 19 18 16 15 13 12 9 6 4 5 6 6 5 10 13 15 18
14 3 6 7 9 5 8 9 19 25 19 19 19 39 28 26 18 25 35 35 35 34 32 33 31 28 26 24 22 21 19 19 18 16 15 15 14 12 6 5 7 9 9 6 8 10 14 18 20
4 5 4 4 10 9 12 18 2 16 18 19 22 36 26 21 16 14 28 33 35 33 33 32 29 27 24 22 20 21 19 19 19 17 14 12 11 11 8 9 10 12 12 9 11 14 19 22 23
3 4 5 4 13 8 16 6 11 13 15 20 21 30 31 29 22 14 17 30 31 32 28 29 28 27 23 23 18 19 20 19 19 18 15 12 9 11 11 12 12 10 11 14 16 17 18 19 20
4 3 4 8 6 10 7 3 3 9 16 19 18 28 27 27 26 23 24 25 29 30 25 25 25 24 25 24 21 22 23 21 21 20 19 14 12 13 12 11 9 8 10 12 13 13 12 16 21
4 3 3 6 6 6 4 6 7 6 8 12 17 22 25 29 26 24 23 26 28 28 26 28 24 20 17 21 28 32 25 26 21 18 15 15 14 15 15 12 11 11 11 10 6 9 14 18 23
8 3 3 3 3 4 1 4 7 7 5 22 23 25 30 31 31 31 30 27 29 26 26 20 19 17 27 11 14 23 27 25 22 18 21 16 16 18 14 12 12 11 6 4 6 11 16 20 23
8 4 2 2 3 1 2 4 3 2 5 11 22 30 31 39 42 37 35 34 34 32 30 29 29 24 45 35 34 33 29 23 22 24 22 20 21 19 14 11 8 4 2 5 10 13 17 20 21
6 6 6 5 3 3 3 3 4 5 4 2 11 24 33 34 33 32 32 31 30 33 35 31 43 52 49 54 44 53 31 23 22 22 24 22 15 11 9 9 6 2 3 7 11 15 18 20 21
4 8 8 5 2 1 2 5 6 8 4 9 12 22 31 35 35 35 33 29 27 30 33 31 29 33 31 31 44 39 29 28 29 25 21 17 14 9 10 7 4 1 5 9 12 16 20 22 22
7 4 3 4 3 2 5 5 4 6 9 4 13 21 29 33 30 33 33 30 30 32 37 38 34 32 27 25 23 41 36 33 30 28 20 14 14 14 12 6 1 3 6 10 15 19 22 23 23
3 6 2 3 1 5 3 5 8 3 5 8 15 24 33 32 33 36 35 32 33 37 39 39 29 30 31 26 28 30 27 25 25 21 18 15 17 15 10 5 3 6 9 13 17 20 23 25 26
4 5 4 5 5 2 2 5 5 5 8 12 22 33 33 38 39 37 34 33 33 33 31 30 29 33 29 27 34 33 25 27 22 25 20 19 17 14 9 6 6 8 11 14 18 22 25 27 27
1 2 2 5 1 4 3 5 4 6 3 5 14 18 27 33 34 34 32 29 22 26 30 28 19 22 29 37 35 34 26 25 23 22 22 22 18 12 10 7 7 9 13 17 21 25 27 27 27
4 7 1 3 3 3 4 4 5 1 6 5 6 17 29 34 33 33 30 28 23 20 26 27 29 35 28 37 30 26 28 25 25 26 30 24 17 13 10 8 9 13 16 20 23 26 26 25 24
3 0 5 5 3 4 1 5 1 8 7 11 14 29 33 37 39 35 33 30 28 24 31 28 33 28 30 27 24 23 24 23 29 32 26 22 18 13 10 9 13 16 19 22 25 25 24 24 24
6 6 5 4 2 2 3 5 1 6 8 11 16 30 35 36 40 37 32 29 31 32 29 26 25 26 29 27 30 24 25 30 33 29 25 20 14 11 10 12 15 18 22 23 24 24 24 25 21
Wind_Direction
237 245 272 290 54 68 247 253 254 159 229 197 158 182 186 124 164 205 165 170 167 165 167 169 170 171 171 167 160 158 157 156 155 156 155 155 152 145 139 137 137 133 129 128 124 122 125 123 118
227 231 240 197 125 163 251 245 249 208 165 7 270 345 141 138 212 164 154 166 174 168 170 171 173 174 174 170 161 160 159 158 157 157 157 154 150 145 143 140 136 132 132 130 130 128 124 125 126
214 206 179 164 184 211 214 232 237 277 312 206 333 347 319 323 212 159 161 167 173 173 171 172 175 177 177 172 164 162 162 162 161 159 156 153 148 146 143 137 131 130 129 125 121 115 108 101 95
174 175 194 162 229 238 200 223 237 331 123 150 78 111 66 5 151 166 164 168 174 175 172 174 177 181 180 174 167 166 167 166 164 160 158 154 151 147 141 136 133 131 126 120 109 97 85 73 64
175 159 178 219 244 229 224 248 271 316 313 331 156 151 65 144 173 159 168 172 176 172 172 175 179 182 181 177 172 171 172 170 168 165 160 156 153 149 144 140 138 134 120 105 88 72 56 35 19
169 160 157 218 233 238 244 228 259 258 286 283 131 121 119 156 162 168 176 177 178 176 175 179 182 184 183 182 178 175 174 175 174 170 165 160 156 152 148 148 146 136 121 92 66 35 4 351 342
166 129 202 228 227 255 217 229 236 218 255 265 174 78 144 174 164 166 175 180 182 180 180 181 184 185 185 185 183 179 179 179 177 175 171 166 163 158 153 153 152 138 119 85 21 351 336 333 327
200 121 185 218 196 247 239 266 240 235 258 239 186 167 195 172 166 170 176 179 184 184 183 184 185 186 187 187 187 184 183 181 181 179 177 174 171 164 164 163 157 128 4 339 333 322 326 333 330
195 160 211 210 196 161 91 113 235 234 196 152 194 210 191 169 170 167 176 183 187 189 189 188 189 189 189 191 190 188 186 185 185 183 182 180 179 176 178 176 172 125 42 355 339 318 322 343 356
186 195 215 186 162 117 25 359 331 11 216 17 229 224 177 177 178 176 181 187 190 194 193 194 192 193 193 194 194 191 189 187 187 186 186 186 187 189 190 181 166 138 100 85 43 24 4 347 335
215 228 184 215 182 183 193 289 290 353 220 200 208 210 187 184 189 187 185 190 191 195 196 196 196 197 197 197 195 193 192 189 188 190 190 192 193 190 182 178 164 165 172 186 322 313 324 327 321
250 224 232 249 189 107 174 334 300 268 254 320 294 216 194 188 194 193 192 193 192 197 199 197 197 198 199 200 199 197 194 193 191 192 193 197 197 187 182 179 181 166 187 306 318 318 314 312 318
243 268 256 238 257 268 266 220 247 271 267 289 275 215 213 204 195 197 199 200 195 198 198 198 198 198 199 197 199 199 198 197 194 195 197 194 188 188 194 197 209 229 290 274 279 291 299 310 314
221 195 250 259 251 246 199 231 224 256 268 268 225 206 207 193 194 198 205 204 200 197 199 198 200 201 199 196 196 198 199 197 195 195 198 200 195 195 197 205 230 266 273 270 294 306 306 303 307
257 273 264 229 213 185 164 269 230 244 252 270 217 210 200 182 173 195 211 213 207 203 202 204 205 205 205 203 199 200 201 201 199 189 188 190 195 199 205 233 251 264 271 287 298 295 290 296 296
224 162 195 243 167 182 187 248 144 233 230 231 237 212 199 190 191 176 190 198 204 205 205 204 205 210 210 213 208 209 198 192 184 181 179 178 184 195 210 232 256 259 257 261 291 287 289 296 303
286 190 187 299 175 157 186 242 176 215 201 220 234 215 204 197 195 190 181 185 190 199 201 201 208 213 214 206 212 209 198 201 205 199 193 190 191 206 223 233 245 251 255 270 284 290 298 307 312
177 169 171 196 208 202 175 252 288 167 201 221 203 204 202 198 195 181 186 177 180 190 193 196 207 214 215 223 223 217 212 216 213 215 210 207 209 219 223 224 241 258 276 282 293 302 314 322 325
5 129 166 180 228 185 168 167 223 244 161 200 208 187 196 200 185 178 171 175 182 182 174 186 196 216 220 230 243 231 226 215 199 192 205 205 216 227 226 238 254 268 285 288 301 326 335 334 337
274 296 266 261 270 171 102 188 216 199 169 180 202 201 192 193 189 190 186 175 167 175 174 173 217 219 244 246 296 240 215 195 195 218 211 207 225 234 231 245 258 266 269 292 323 339 347 349 345
238 207 264 221 312 227 99 334 172 66 82 183 202 211 196 198 198 195 198 201 205 210 207 233 256 248 246 235 260 285 222 211 203 208 202 208 215 234 234 243 227 216 282 327 347 345 352 355 354
230 208 239 288 55 159 104 230 207 159 95 102 180 198 199 186 196 204 209 212 220 227 233 229 224 229 237 231 247 246 258 246 234 214 215 209 213 213 220 186 175 177 327 349 348 347 351 352 353
219 182 198 211 162 101 328 98 269 126 172 190 205 199 208 213 210 209 216 218 216 219 223 220 220 218 233 241 220 218 208 228 230 221 206 207 215 198 177 173 146 17 345 349 345 345 348 351 351
244 212 67 62 114 69 217 116 284 190 194 156 200 208 204 208 206 206 207 208 216 219 218 212 220 219 225 227 210 204 197 209 215 230 211 220 184 173 176 165 158 307 326 342 344 342 343 344 342
145 97 64 61 61 213 225 101 240 252 218 180 179 202 205 206 207 202 206 215 214 210 214 222 231 230 242 221 216 191 206 212 215 215 235 202 174 177 177 176 243 292 328 343 339 337 335 334 332
176 139 148 160 179 184 272 207 241 223 190 223 194 193 200 204 212 216 218 216 209 208 214 217 220 231 235 211 179 190 200 229 205 233 202 171 178 187 188 211 251 305 331 330 331 330 328 324 322
176 134 194 104 23 72 240 305 282 151 107 151 178 185 205 209 211 213 214 222 206 210 210 194 201 201 190 183 187 185 203 216 212 191 173 179 185 192 208 235 281 307 318 325 325 323 318 316 317
105 163 117 9 121 155 296 291 224 176 186 150 170 201 209 214 215 218 221 213 183 186 184 195 188 188 187 194 202 198 189 200 186 175 180 185 189 203 221 251 288 306 315 318 317 313 313 316 318
100 273 63 104 76 137 78 270 15 285 230 195 201 202 207 208 209 213 212 201 191 174 169 169 178 188 189 190 196 185 171 176 174 179 183 189 196 207 234 267 290 305 311 313 314 316 317 320 319
145 169 121 112 203 171 160 273 206 334 288 230 222 202 211 209 203 202 203 195 193 188 187 190 188 191 196 195 172 178 185 180 177 183 187 190 202 220 252 285 303 308 311 314 316 317 320 319 317
Height
1497 1499 1501 1502 1511 1513 1514 1498 1478 1480 1478 1473 1471 1473 1470 1470 1473 1487 1470 1476 1481 1484 1491 1497 1502 1505 1508 1510 1512 1513 1515 1518 1519 1521 1522 1524 1526 1527 1528 1529 1530 1531 1532 1532 1532 1532 1532 1532 1532
1494 1497 1500 1500 1514 1522 1512 1488 1478 1470 1472 1472 1471 1472 1470 1471 1471 1468 1469 1478 1484 1484 1490 1497 1502 1505 1508 1511 1512 1514 1517 1519 1521 1524 1525 1526 1527 1529 1529 1530 1531 1532 1533 1534 1533 1533 1534 1533 1532
1492 1495 1498 1500 1509 1508 1503 1481 1475 1464 1464 1469 1470 1470 1471 1470 1470 1469 1471 1477 1484 1486 1489 1495 1501 1505 1508 1512 1514 1515 1518 1520 1521 1524 1526 1528 1530 1530 1531 1532 1533 1534 1535 1535 1535 1534 1534 1534 1533
1490 1495 1497 1502 1498 1490 1480 1473 1468 1469 1469 1467 1468 1472 1473 1470 1471 1472 1475 1479 1485 1489 1491 1495 1499 1504 1508 1511 1515 1517 1518 1520 1523 1525 1526 1528 1530 1532 1533 1534 1534 1536 1536 1536 1536 1535 1535 1535 1535
1488 1490 1499 1501 1492 1479 1473 1470 1468 1469 1469 1467 1470 1474 1474 1472 1474 1476 1479 1484 1488 1492 1495 1498 1501 1505 1510 1513 1515 1518 1520 1522 1524 1526 1527 1529 1531 1532 1534 1535 1536 1536 1537 1537 1537 1537 1536 1536 1535
1485 1485 1501 1490 1487 1472 1472 1470 1470 1473 1470 1468 1469 1473 1478 1473 1473 1477 1483 1487 1490 1492 1496 1498 1501 1506 1510 1514 1516 1518 1521 1523 1526 1529 1530 1531 1532 1533 1534 1535 1535 1536 1537 1537 1537 1537 1537 1536 1536
1479 1485 1490 1484 1478 1473 1470 1471 1470 1472 1473 1469 1467 1471 1475 1473 1472 1476 1483 1488 1493 1495 1497 1499 1503 1507 1511 1514 1516 1518 1521 1523 1526 1528 1531 1532 1533 1534 1535 1536 1537 1537 1537 1537 1537 1537 1537 1537 1535
1475 1478 1484 1478 1477 1460 1467 1469 1469 1469 1467 1466 1468 1470 1473 1468 1470 1477 1484 1488 1492 1495 1498 1501 1503 1506 1509 1512 1515 1517 1520 1522 1524 1526 1529 1532 1533 1535 1536 1537 1538 1538 1538 1538 1537 1536 1536 1536 1535
1472 1480 1481 1467 1471 1476 1466 1468 1467 1465 1464 1464 1464 1463 1463 1465 1469 1470 1479 1487 1491 1495 1498 1502 1504 1506 1509 1511 1514 1516 1519 1521 1523 1526 1528 1530 1532 1533 1535 1536 1537 1537 1537 1537 1537 1536 1536 1535 1535
1465 1472 1462 1457 1462 1467 1465 1463 1464 1464 1464 1464 1464 1462 1465 1461 1466 1464 1468 1479 1485 1491 1494 1499 1504 1507 1509 1510 1512 1515 1517 1519 1522 1525 1527 1529 1530 1531 1532 1533 1534 1534 1534 1534 1535 1536 1535 1535 1534
1458 1456 1454 1452 1458 1464 1466 1464 1461 1464 1465 1460 1460 1460 1462 1458 1461 1465 1467 1472 1478 1488 1491 1496 1500 1505 1508 1510 1513 1514 1517 1519 1521 1523 1526 1529 1530 1531 1531 1532 1532 1533 1533 1533 1533 1533 1533 1534 1533
1458 1451 1451 1453 1460 1463 1464 1464 1461 1461 1460 1460 1460 1458 1463 1458 1458 1465 1470 1473 1477 1484 1490 1495 1499 1503 1506 1509 1513 1516 1517 1519 1521 1524 1526 1526 1528 1529 1530 1532 1532 1532 1532 1532 1532 1533 1532 1531 1531
1453 1450 1450 1454 1458 1461 1463 1463 1460 1455 1455 1457 1455 1457 1455 1458 1461 1470 1475 1478 1479 1481 1487 1493 1498 1501 1504 1507 1512 1515 1517 1518 1520 1522 1525 1526 1528 1530 1531 1532 1531 1531 1530 1529 1530 1530 1530 1529 1528
1446 1447 1450 1451 1456 1461 1460 1458 1458 1449 1453 1453 1453 1453 1455 1462 1464 1471 1476 1477 1481 1485 1491 1494 1498 1502 1505 1507 1510 1514 1517 1520 1521 1523 1525 1527 1528 1529 1530 1529 1529 1529 1530 1528 1528 1529 1528 1527 1526
1445 1448 1447 1444 1451 1460 1456 1456 1446 1448 1452 1451 1452 1452 1461 1466 1468 1469 1472 1477 1482 1489 1492 1495 1500 1506 1509 1511 1513 1515 1518 1519 1521 1524 1525 1525 1526 1528 1529 1530 1530 1529 1529 1528 1528 1528 1527 1526 1524
1444 1446 1453 1438 1445 1452 1456 1448 1443 1445 1448 1449 1448 1452 1458 1463 1468 1469 1471 1474 1480 1487 1492 1497 1504 1508 1512 1515 1516 1516 1517 1519 1521 1522 1524 1526 1527 1527 1527 1529 1529 1530 1531 1528 1527 1526 1525 1524 1522
1446 1452 1448 1440 1435 1440 1446 1443 1436 1441 1444 1446 1446 1449 1455 1461 1465 1468 1469 1472 1475 1482 1489 1497 1503 1509 1512 1515 1517 1518 1519 1519 1522 1524 1524 1526 1527 1527 1526 1526 1527 1528 1527 1528 1525 1523 1522 1520 1519
1447 1447 1441 1443 1434 1435 1441 1442 1434 1437 1440 1441 1443 1445 1451 1457 1461 1467 1469 1472 1472 1477 1486 1494 1503 1507 1511 1518 1520 1518 1517 1518 1520 1522 1525 1526 1527 1527 1527 1526 1528 1527 1527 1526 1522 1521 1519 1516 1515
1438 1437 1435 1434 1427 1432 1439 1441 1436 1433 1438 1440 1441 1444 1448 1453 1460 1466 1469 1470 1471 1475 1481 1490 1500 1508 1512 1515 1517 1517 1515 1516 1516 1519 1520 1523 1526 1527 1526 1525 1526 1526 1526 1524 1521 1519 1516 1514 1511
1440 1440 1438 1431 1427 1430 1434 1436 1432 1430 1433 1435 1438 1441 1446 1450 1456 1463 1467 1469 1469 1472 1479 1489 1496 1503 1511 1507 1515 1512 1519 1516 1517 1513 1517 1518 1523 1529 1524 1524 1524 1527 1523 1523 1519 1516 1513 1511 1509
1438 1440 1437 1435 1429 1427 1429 1439 1431 1431 1431 1434 1436 1437 1442 1444 1451 1458 1461 1462 1465 1469 1472 1480 1484 1488 1502 1500 1498 1514 1509 1516 1514 1512 1514 1517 1521 1526 1525 1524 1524 1524 1524 1522 1518 1517 1511 1508 1508
1441 1432 1432 1432 1436 1445 1429 1457 1433 1431 1436 1436 1436 1436 1439 1444 1449 1452 1455 1458 1461 1463 1465 1464 1470 1479 1491 1496 1502 1506 1500 1513 1510 1513 1514 1515 1518 1523 1524 1526 1524 1522 1524 1518 1518 1517 1511 1507 1505
1433 1425 1429 1429 1435 1436 1438 1451 1440 1431 1436 1434 1434 1434 1435 1439 1444 1447 1450 1453 1456 1457 1459 1464 1471 1478 1485 1491 1488 1486 1502 1506 1511 1513 1513 1511 1517 1526 1528 1527 1525 1524 1523 1518 1518 1517 1512 1506 1503
1423 1425 1428 1434 1440 1455 1439 1441 1444 1432 1421 1427 1430 1430 1431 1434 1439 1444 1448 1451 1452 1454 1458 1464 1469 1474 1477 1479 1484 1488 1486 1493 1502 1509 1509 1510 1519 1525 1528 1525 1522 1524 1522 1516 1517 1516 1511 1505 1502
1423 1431 1451 1454 1455 1456 1437 1443 1435 1417 1416 1413 1422 1426 1429 1433 1436 1441 1444 1446 1449 1451 1456 1462 1465 1468 1467 1470 1475 1482 1487 1493 1496 1505 1509 1513 1518 1525 1525 1520 1523 1524 1518 1514 1516 1512 1509 1504 1500
1424 1429 1450 1447 1457 1449 1432 1440 1427 1412 1411 1412 1414 1418 1425 1430 1434 1437 1441 1445 1450 1454 1458 1460 1463 1462 1461 1467 1476 1480 1486 1494 1498 1505 1510 1514 1521 1526 1523 1521 1521 1521 1514 1513 1511 1508 1505 1502 1498
1426 1431 1426 1437 1439 1444 1441 1426 1415 1413 1413 1414 1416 1422 1427 1429 1433 1437 1440 1443 1448 1451 1452 1456 1460 1464 1469 1475 1477 1476 1472 1495 1498 1505 1511 1516 1520 1520 1521 1521 1521 1517 1511 1509 1507 1505 1503 1499 1495
1418 1421 1433 1442 1449 1448 1444 1437 1431 1417 1417 1420 1421 1421 1423 1427 1431 1435 1440 1444 1450 1451 1454 1459 1461 1467 1473 1475 1481 1482 1486 1494 1500 1507 1511 1515 1516 1520 1521 1520 1517 1513 1509 1506 1505 1502 1498 1494 1491
1424 1429 1433 1438 1448 1455 1462 1443 1422 1421 1413 1414 1414 1411 1413 1418 1424 1431 1439 1445 1452 1456 1459 1462 1463 1469 1473 1478 1482 1487 1489 1494 1502 1509 1512 1513 1516 1518 1519 1515 1511 1508 1506 1506 1502 1498 1493 1490 1489
1414 1422 1428 1446 1449 1451 1454 1445 1413 1414 1411 1406 1403 1405 1408 1410 1418 1428 1439 1444 1449 1454 1458 1464 1465 1468 1472 1476 1480 1484 1487 1493 1504 1508 1511 1512 1513 1514 1513 1510 1507 1507 1504 1500 1497 1494 1491 1488 1486